Time,TemperatureF,DewpointF,PressureIn,WindDirection,WindDirectionDegrees,WindSpeedMPH,WindSpeedGustMPH,Humidity,HourlyPrecipIn,Conditions,Clouds,dailyrainin,SoftwareType,DateUTC
2013-11-16 00:04:00,34.9,26.0,29.69,NE,46,0.0,4.0,69,0.00,,,0.00,weatherlink.com 1.10,2013-11-16 08:04:00,
2013-11-16 00:19:00,34.3,26.0,29.68,NE,46,3.0,3.0,71,0.00,,,0.00,weatherlink.com 1.10,2013-11-16 08:19:00,
2013-11-16 00:34:00,34.0,25.0,29.67,NE,41,0.0,3.0,70,0.00,,,0.00,weatherlink.com 1.10,2013-11-16 08:34:00,
2013-11-16 00:49:00,35.6,26.0,29.65,SW,217,2.0,6.0,69,0.00,,,0.00,weatherlink.com 1.10,2013-11-16 08:49:00,
2013-11-16 01:04:00,39.1,26.0,29.66,SW,217,2.0,6.0,60,0.00,,,0.00,weatherlink.com 1.10,2013-11-16 09:04:00,
2013-11-16 01:19:00,37.9,26.0,29.65,SW,218,6.0,8.0,62,0.00,,,0.00,weatherlink.com 1.10,2013-11-16 09:19:00,
2013-11-16 01:34:00,37.3,26.0,29.66,SSW,213,4.0,9.0,63,0.00,,,0.00,weatherlink.com 1.10,2013-11-16 09:34:00,
2013-11-16 01:49:00,38.5,26.0,29.66,SSW,201,2.0,7.0,61,0.00,,,0.00,weatherlink.com 1.10,2013-11-16 09:49:00,
2013-11-16 02:04:00,39.2,26.0,29.66,SSW,204,2.0,5.0,59,0.00,,,0.00,weatherlink.com 1.10,2013-11-16 10:04:00,
2013-11-16 02:19:00,41.8,26.0,29.66,West,276,2.0,7.0,54,0.00,,,0.00,weatherlink.com 1.10,2013-11-16 10:19:00,
2013-11-16 02:34:00,42.5,26.0,29.66,WNW,302,2.0,8.0,52,0.00,,,0.00,weatherlink.com 1.10,2013-11-16 10:34:00,
2013-11-16 02:49:00,40.3,26.0,29.65,WNW,302,1.0,5.0,56,0.00,,,0.00,weatherlink.com 1.10,2013-11-16 10:49:00,
2013-11-16 03:04:00,40.8,26.0,29.65,SE,138,3.0,6.0,56,0.00,,,0.00,weatherlink.com 1.10,2013-11-16 11:04:00,
2013-11-16 03:19:00,42.5,25.0,29.65,ESE,121,3.0,7.0,51,0.00,,,0.00,weatherlink.com 1.10,2013-11-16 11:19:00,
2013-11-16 03:34:00,42.5,26.0,29.64,SE,129,3.0,4.0,52,0.00,,,0.00,weatherlink.com 1.10,2013-11-16 11:34:00,
2013-11-16 03:49:00,41.8,26.0,29.65,WSW,240,3.0,5.0,54,0.00,,,0.00,weatherlink.com 1.10,2013-11-16 11:49:00,
2013-11-16 04:04:00,42.2,26.0,29.65,WSW,240,2.0,4.0,52,0.00,,,0.00,weatherlink.com 1.10,2013-11-16 12:04:00,
2013-11-16 04:19:00,42.5,26.0,29.65,WSW,240,2.0,4.0,52,0.00,,,0.00,weatherlink.com 1.10,2013-11-16 12:19:00,
2013-11-16 04:35:00,43.1,26.0,29.65,SW,236,1.0,3.0,51,0.00,,,0.00,weatherlink.com 1.10,2013-11-16 12:35:00,
2013-11-16 04:50:00,44.3,25.0,29.65,SSE,147,3.0,5.0,47,0.00,,,0.00,weatherlink.com 1.10,2013-11-16 12:50:00,
2013-11-16 05:05:00,44.3,25.0,29.64,SE,138,0.0,4.0,47,0.00,,,0.00,weatherlink.com 1.10,2013-11-16 13:05:00,
2013-11-16 05:20:00,46.0,24.0,29.64,SE,142,0.0,12.0,43,0.00,,,0.00,weatherlink.com 1.10,2013-11-16 13:20:00,
2013-11-16 05:35:00,46.4,25.0,29.64,NE,54,1.0,6.0,43,0.00,,,0.00,weatherlink.com 1.10,2013-11-16 13:35:00,
2013-11-16 05:50:00,46.7,24.0,29.65,WSW,248,5.0,10.0,41,0.00,,,0.00,weatherlink.com 1.10,2013-11-16 13:50:00,
2013-11-16 06:05:00,47.1,24.0,29.65,WSW,250,9.0,12.0,40,0.00,,,0.00,weatherlink.com 1.10,2013-11-16 14:05:00,
2013-11-16 06:20:00,47.1,22.0,29.66,West,280,0.0,3.0,38,0.00,,,0.00,weatherlink.com 1.10,2013-11-16 14:20:00,
2013-11-16 06:35:00,47.3,21.0,29.66,NW,325,1.0,17.0,35,0.00,,,0.00,weatherlink.com 1.10,2013-11-16 14:35:00,
2013-11-16 06:50:00,47.6,20.0,29.67,West,265,4.0,12.0,34,0.00,,,0.00,weatherlink.com 1.10,2013-11-16 14:50:00,
2013-11-16 07:05:00,47.4,20.0,29.67,NW,306,0.0,4.0,34,0.00,,,0.00,weatherlink.com 1.10,2013-11-16 15:05:00,
2013-11-16 07:20:00,47.1,19.0,29.67,NNW,340,1.0,6.0,33,0.00,,,0.00,weatherlink.com 1.10,2013-11-16 15:20:00,
2013-11-16 07:35:00,47.6,18.0,29.67,NW,315,1.0,9.0,31,0.00,,,0.00,weatherlink.com 1.10,2013-11-16 15:35:00,
2013-11-16 07:50:00,47.9,17.0,29.67,North,5,0.0,7.0,29,0.00,,,0.00,weatherlink.com 1.10,2013-11-16 15:50:00,
2013-11-16 08:05:00,47.9,18.0,29.68,West,273,3.0,9.0,31,0.00,,,0.00,weatherlink.com 1.10,2013-11-16 16:05:00,
2013-11-16 08:20:00,48.5,17.0,29.68,WNW,286,2.0,6.0,29,0.00,,,0.00,weatherlink.com 1.10,2013-11-16 16:20:00,
2013-11-16 08:35:00,51.0,18.0,29.68,West,281,7.0,12.0,27,0.00,,,0.00,weatherlink.com 1.10,2013-11-16 16:35:00,
2013-11-16 08:50:00,51.7,19.0,29.68,WNW,297,14.0,17.0,27,0.00,,,0.00,weatherlink.com 1.10,2013-11-16 16:50:00,
2013-11-16 09:06:00,52.2,18.0,29.68,WNW,299,11.0,21.0,26,0.00,,,0.00,weatherlink.com 1.10,2013-11-16 17:06:00,
2013-11-16 09:20:00,52.6,19.0,29.68,NE,44,11.0,18.0,27,0.00,,,0.00,weatherlink.com 1.10,2013-11-16 17:20:00,
2013-11-16 09:35:00,54.2,20.0,29.70,NNW,338,5.0,12.0,26,0.00,,,0.00,weatherlink.com 1.10,2013-11-16 17:35:00,
2013-11-16 09:50:00,54.2,22.0,29.70,ENE,71,3.0,11.0,28,0.00,,,0.00,weatherlink.com 1.10,2013-11-16 17:50:00,
2013-11-16 10:05:00,55.4,22.0,29.70,NW,306,4.0,9.0,27,0.00,,,0.00,weatherlink.com 1.10,2013-11-16 18:05:00,
2013-11-16 10:20:00,53.5,23.0,29.71,NE,45,9.0,13.0,30,0.00,,,0.00,weatherlink.com 1.10,2013-11-16 18:20:00,
2013-11-16 10:35:00,54.7,22.0,29.71,NE,34,2.0,10.0,28,0.00,,,0.00,weatherlink.com 1.10,2013-11-16 18:35:00,
2013-11-16 10:50:00,52.6,23.0,29.70,NE,38,3.0,8.0,31,0.00,,,0.00,weatherlink.com 1.10,2013-11-16 18:50:00,
2013-11-16 11:05:00,51.0,23.0,29.70,North,350,3.0,6.0,33,0.00,,,0.00,weatherlink.com 1.10,2013-11-16 19:05:00,
2013-11-16 11:20:00,51.4,23.0,29.69,North,360,2.0,9.0,33,0.00,,,0.00,weatherlink.com 1.10,2013-11-16 19:20:00,
2013-11-16 11:35:00,53.1,23.0,29.68,NE,54,1.0,4.0,31,0.00,,,0.00,weatherlink.com 1.10,2013-11-16 19:35:00,
2013-11-16 11:50:00,55.9,23.0,29.67,ENE,76,2.0,9.0,28,0.00,,,0.00,weatherlink.com 1.10,2013-11-16 19:50:00,
2013-11-16 12:05:00,56.6,23.0,29.66,NNW,330,14.0,17.0,27,0.00,,,0.00,weatherlink.com 1.10,2013-11-16 20:05:00,
2013-11-16 12:20:00,58.0,25.0,29.66,NE,53,1.0,11.0,28,0.00,,,0.00,weatherlink.com 1.10,2013-11-16 20:20:00,
2013-11-16 12:35:00,57.6,24.0,29.65,NW,317,9.0,21.0,27,0.00,,,0.00,weatherlink.com 1.10,2013-11-16 20:35:00,
2013-11-16 12:50:00,58.0,23.0,29.65,NNE,29,6.0,26.0,26,0.00,,,0.00,weatherlink.com 1.10,2013-11-16 20:50:00,
2013-11-16 13:05:00,58.0,24.0,29.65,NE,52,8.0,24.0,27,0.00,,,0.00,weatherlink.com 1.10,2013-11-16 21:05:00,
2013-11-16 13:20:00,58.9,23.0,29.64,NW,311,5.0,17.0,25,0.00,,,0.00,weatherlink.com 1.10,2013-11-16 21:20:00,
2013-11-16 13:35:00,59.3,23.0,29.64,NNW,346,3.0,17.0,25,0.00,,,0.00,weatherlink.com 1.10,2013-11-16 21:35:00,
2013-11-16 13:50:00,59.3,23.0,29.64,NW,304,12.0,17.0,25,0.00,,,0.00,weatherlink.com 1.10,2013-11-16 21:50:00,
2013-11-16 14:05:00,58.9,24.0,29.64,WNW,294,6.0,18.0,26,0.00,,,0.00,weatherlink.com 1.10,2013-11-16 22:05:00,
2013-11-16 14:20:00,59.2,24.0,29.64,West,277,11.0,15.0,26,0.00,,,0.00,weatherlink.com 1.10,2013-11-16 22:20:00,
2013-11-16 14:35:00,58.9,22.0,29.64,NW,304,5.0,15.0,24,0.00,,,0.00,weatherlink.com 1.10,2013-11-16 22:35:00,
2013-11-16 14:50:00,58.6,24.0,29.64,WNW,284,12.0,14.0,26,0.00,,,0.00,weatherlink.com 1.10,2013-11-16 22:50:00,
2013-11-16 15:05:00,58.4,23.0,29.64,West,267,9.0,13.0,26,0.00,,,0.00,weatherlink.com 1.10,2013-11-16 23:05:00,
2013-11-16 15:20:00,58.3,24.0,29.64,West,275,10.0,15.0,27,0.00,,,0.00,weatherlink.com 1.10,2013-11-16 23:20:00,
2013-11-16 15:35:00,57.8,24.0,29.65,West,273,5.0,10.0,27,0.00,,,0.00,weatherlink.com 1.10,2013-11-16 23:35:00,
2013-11-16 15:50:00,57.3,24.0,29.65,West,270,10.0,12.0,28,0.00,,,0.00,weatherlink.com 1.10,2013-11-16 23:50:00,
2013-11-16 16:06:00,56.7,24.0,29.66,NW,310,3.0,8.0,28,0.00,,,0.00,weatherlink.com 1.10,2013-11-17 00:06:00,
2013-11-16 16:21:00,55.3,24.0,29.67,NW,311,6.0,12.0,30,0.00,,,0.00,weatherlink.com 1.10,2013-11-17 00:21:00,
2013-11-16 16:36:00,54.1,25.0,29.68,WNW,283,4.0,12.0,32,0.00,,,0.00,weatherlink.com 1.10,2013-11-17 00:36:00,
2013-11-16 16:51:00,53.6,26.0,29.68,NW,319,2.0,13.0,34,0.00,,,0.00,weatherlink.com 1.10,2013-11-17 00:51:00,
2013-11-16 17:06:00,53.1,25.0,29.69,NW,312,4.0,9.0,34,0.00,,,0.00,weatherlink.com 1.10,2013-11-17 01:06:00,
2013-11-16 17:21:00,52.5,25.0,29.68,WSW,252,3.0,9.0,35,0.00,,,0.00,weatherlink.com 1.10,2013-11-17 01:21:00,
2013-11-16 17:36:00,52.0,25.0,29.69,WNW,284,6.0,14.0,35,0.00,,,0.00,weatherlink.com 1.10,2013-11-17 01:36:00,
2013-11-16 17:51:00,51.3,25.0,29.70,WNW,288,6.0,12.0,36,0.00,,,0.00,weatherlink.com 1.10,2013-11-17 01:51:00,
2013-11-16 18:06:00,51.1,25.0,29.70,WNW,292,5.0,15.0,36,0.00,,,0.00,weatherlink.com 1.10,2013-11-17 02:06:00,
2013-11-16 18:21:00,50.4,24.0,29.71,WNW,285,6.0,14.0,35,0.00,,,0.00,weatherlink.com 1.10,2013-11-17 02:21:00,
2013-11-16 18:36:00,49.6,25.0,29.71,West,276,6.0,15.0,39,0.00,,,0.00,weatherlink.com 1.10,2013-11-17 02:36:00,
2013-11-16 18:51:00,49.5,25.0,29.72,WNW,283,8.0,17.0,38,0.00,,,0.00,weatherlink.com 1.10,2013-11-17 02:51:00,
2013-11-16 19:06:00,49.2,24.0,29.73,West,275,5.0,14.0,38,0.00,,,0.00,weatherlink.com 1.10,2013-11-17 03:06:00,
2013-11-16 19:21:00,48.2,24.0,29.74,West,281,8.0,15.0,39,0.00,,,0.00,weatherlink.com 1.10,2013-11-17 03:21:00,
2013-11-16 19:36:00,48.0,23.0,29.75,NNE,21,5.0,10.0,38,0.00,,,0.00,weatherlink.com 1.10,2013-11-17 03:36:00,
2013-11-16 19:51:00,47.6,24.0,29.76,NE,55,3.0,7.0,39,0.00,,,0.00,weatherlink.com 1.10,2013-11-17 03:51:00,
2013-11-16 20:06:00,47.3,23.0,29.77,ENE,72,1.0,8.0,39,0.00,,,0.00,weatherlink.com 1.10,2013-11-17 04:06:00,
2013-11-16 20:21:00,46.4,23.0,29.77,ENE,74,3.0,5.0,40,0.00,,,0.00,weatherlink.com 1.10,2013-11-17 04:21:00,
2013-11-16 20:36:00,45.7,23.0,29.77,ENE,62,0.0,3.0,41,0.00,,,0.00,weatherlink.com 1.10,2013-11-17 04:36:00,
2013-11-16 20:51:00,44.2,23.0,29.77,West,265,3.0,7.0,43,0.00,,,0.00,weatherlink.com 1.10,2013-11-17 04:51:00,
2013-11-16 21:06:00,42.5,23.0,29.78,West,261,3.0,4.0,46,0.00,,,0.00,weatherlink.com 1.10,2013-11-17 05:06:00,
2013-11-16 21:21:00,42.2,23.0,29.78,West,263,4.0,5.0,46,0.00,,,0.00,weatherlink.com 1.10,2013-11-17 05:21:00,
2013-11-16 21:36:00,44.9,23.0,29.78,WNW,297,5.0,10.0,43,0.00,,,0.00,weatherlink.com 1.10,2013-11-17 05:36:00,
2013-11-16 21:51:00,46.4,23.0,29.79,NW,312,8.0,12.0,40,0.00,,,0.00,weatherlink.com 1.10,2013-11-17 05:51:00,
2013-11-16 22:06:00,46.0,24.0,29.79,NW,315,5.0,12.0,42,0.00,,,0.00,weatherlink.com 1.10,2013-11-17 06:06:00,
2013-11-16 22:21:00,44.9,25.0,29.80,NNW,337,7.0,13.0,46,0.00,,,0.00,weatherlink.com 1.10,2013-11-17 06:21:00,
2013-11-16 22:36:00,44.5,26.0,29.81,North,5,4.0,9.0,49,0.00,,,0.00,weatherlink.com 1.10,2013-11-17 06:36:00,
2013-11-16 22:51:00,43.1,28.0,29.80,North,349,6.0,11.0,55,0.00,,,0.00,weatherlink.com 1.10,2013-11-17 06:51:00,
2013-11-16 23:06:00,43.5,29.0,29.81,NNW,344,9.0,12.0,56,0.00,,,0.00,weatherlink.com 1.10,2013-11-17 07:06:00,
2013-11-16 23:21:00,43.6,29.0,29.81,NNE,25,4.0,10.0,56,0.00,,,0.00,weatherlink.com 1.10,2013-11-17 07:21:00,
2013-11-16 23:36:00,44.3,27.0,29.82,NNW,343,7.0,9.0,51,0.00,,,0.00,weatherlink.com 1.10,2013-11-17 07:36:00,
2013-11-16 23:51:00,44.1,28.0,29.83,North,9,1.0,9.0,54,0.00,,,0.00,weatherlink.com 1.10,2013-11-17 07:51:00,